Theta_e
342 350 359 359 358 357 355 354 355 359 359 360 360 359 358 357 355 352 349 346 344 342 340 339 337 336 336 335 335 334 334 334 334 336 339 343 346 348 351 350 352 353 356
343 350 358 358 357 357 356 354 353 355 356 357 358 357 355 353 351 348 345 343 342 340 338 336 335 335 335 335 335 334 334 333 332 331 332 336 339 341 345 350 350 353 355
344 350 355 357 356 356 355 354 352 352 354 354 355 354 353 351 350 348 345 341 339 337 336 337 336 336 336 336 336 336 335 335 334 333 333 328 334 336 342 343 351 351 353
347 351 347 356 355 355 355 353 353 353 352 352 352 352 351 350 349 346 344 341 339 339 338 339 338 337 337 338 338 338 338 337 337 337 335 331 326 331 338 342 343 351 352
349 351 348 356 354 355 354 353 352 352 352 352 352 351 350 349 347 346 344 344 340 340 340 339 338 340 341 341 341 340 340 340 340 340 337 336 334 330 339 342 346 347 352
348 350 351 355 354 354 354 353 352 352 351 351 351 350 349 348 347 346 345 344 344 341 341 340 342 342 342 343 342 342 342 343 344 343 341 341 336 336 339 344 345 347 349
345 349 349 355 354 355 355 354 352 351 351 350 350 349 348 348 347 346 345 344 345 343 342 342 343 343 344 345 345 345 345 343 344 344 344 343 340 338 340 344 348 349 352
344 349 348 356 355 355 354 353 352 351 350 350 350 349 349 348 347 346 346 345 346 347 345 344 344 345 345 346 345 344 345 345 343 343 344 344 341 337 339 344 348 350 353
348 349 349 353 355 355 354 353 352 351 350 349 349 349 349 348 347 347 346 346 347 347 348 348 347 346 345 344 344 343 343 343 341 341 341 343 343 338 339 342 346 347 349
348 347 350 352 349 349 349 354 353 352 351 350 350 349 348 349 348 347 346 346 347 347 348 348 348 347 347 345 344 343 342 341 337 337 339 341 342 340 341 341 343 345 345
342 348 350 348 350 349 346 347 353 353 352 351 350 350 348 342 343 343 342 345 347 348 348 348 348 348 348 346 344 342 341 340 339 337 336 343 341 341 342 341 342 343 345
340 345 348 351 350 350 345 348 351 347 349 346 343 344 344 342 343 340 342 347 348 349 348 348 348 348 348 344 344 342 340 341 340 339 337 341 340 342 342 342 342 342 344
339 340 346 352 354 351 349 346 347 348 346 346 346 350 348 341 343 341 339 342 343 347 344 346 347 347 345 343 341 340 340 339 337 337 339 338 339 340 340 341 342 342 345
332 333 339 350 353 355 350 348 349 347 347 346 346 353 349 345 345 343 338 340 341 340 342 344 343 347 346 345 344 341 340 339 339 339 341 339 339 341 342 341 342 342 345
332 334 336 342 354 356 356 351 352 352 348 349 348 350 346 343 346 343 343 339 340 340 340 341 343 345 345 345 344 342 340 340 340 340 339 341 339 340 342 343 342 342 344
332 334 338 339 350 354 356 357 354 354 351 350 348 347 351 346 348 341 341 340 338 339 340 340 341 343 343 343 343 343 342 341 341 341 339 340 340 339 340 341 342 342 344
333 336 339 342 344 351 352 353 354 350 350 347 348 351 349 350 350 348 340 340 338 342 341 340 341 344 342 342 343 343 344 342 340 341 341 339 339 340 339 340 341 342 343
335 336 339 336 335 344 351 349 347 346 347 348 347 349 349 350 349 347 342 339 339 341 339 338 338 336 339 339 341 344 344 342 339 340 341 340 339 338 340 341 341 341 342
334 337 337 340 338 341 348 346 350 353 349 347 348 348 350 349 349 346 343 340 346 338 337 336 336 337 337 344 341 343 343 339 339 338 341 341 341 340 337 341 341 342 344
332 337 339 340 348 345 341 345 345 346 348 348 347 348 350 349 348 347 344 344 343 338 336 336 337 338 343 341 337 336 339 340 340 341 340 342 341 339 340 339 340 338 343
331 338 342 342 350 342 336 338 341 341 345 346 348 350 349 349 348 346 345 343 343 338 337 339 338 343 341 339 335 334 334 337 339 338 337 340 339 338 339 339 339 346 338
332 337 343 344 347 343 338 343 342 344 345 347 347 349 349 348 348 344 347 344 343 339 339 339 344 338 337 339 333 331 324 331 335 336 338 337 336 337 335 338 339 342 343
329 336 338 342 343 344 344 344 347 348 346 341 343 345 346 347 345 344 346 346 344 341 338 343 342 341 333 337 338 330 322 321 328 332 332 335 335 340 340 339 341 341 342
325 328 335 340 339 340 346 349 351 343 339 341 345 344 342 344 345 348 348 346 345 342 345 343 342 340 339 332 330 332 333 330 323 322 328 332 329 335 338 340 342 341 341
323 324 331 335 337 342 346 349 346 347 344 346 346 342 343 345 346 347 348 347 346 344 345 343 343 343 339 335 331 329 329 328 331 327 323 327 330 332 339 337 342 346 341
322 324 327 332 340 344 347 348 349 349 348 345 346 342 343 345 347 348 347 347 347 345 345 344 343 342 339 334 331 333 327 326 328 328 327 324 325 327 337 340 339 346 343
Wind_Speed
11 19 22 20 18 16 17 17 16 16 15 15 16 15 14 13 13 13 13 12 12 12 11 11 10 9 9 8 8 7 6 5 5 4 5 5 6 5 3 2 5 8 13
18 22 23 21 20 18 17 17 16 16 16 15 15 16 15 14 14 12 12 12 11 11 10 10 10 9 8 7 7 6 6 5 4 3 1 4 4 5 4 2 5 4 11
20 21 24 23 22 20 18 18 17 16 16 16 16 16 16 15 14 14 13 11 11 11 11 10 9 9 7 6 6 5 4 4 3 2 3 7 2 4 4 4 4 4 7
18 19 23 23 23 21 19 18 18 17 16 17 16 16 16 16 15 15 15 15 13 12 11 10 9 8 7 6 4 4 3 3 2 3 9 2 4 7 2 3 2 4 7
17 19 20 25 24 23 21 19 17 17 16 17 16 15 16 16 16 15 15 15 15 14 12 11 10 8 7 6 5 4 2 2 2 9 2 3 3 9 1 3 5 6 9
17 19 20 24 21 21 20 19 18 17 16 15 16 17 16 15 14 14 14 14 14 15 14 12 10 9 8 6 5 4 4 4 7 8 3 6 6 8 2 5 6 7 5
15 16 17 18 19 20 20 19 19 18 17 16 16 16 15 15 15 14 14 13 13 14 14 13 11 9 8 6 6 7 6 6 11 7 4 4 1 3 4 6 8 8 9
13 12 14 19 18 18 19 18 17 17 18 17 17 16 16 16 15 15 14 13 13 12 13 13 12 10 8 6 4 4 4 6 10 9 6 5 9 1 4 6 10 8 9
11 11 11 16 17 15 17 18 18 17 17 17 16 16 16 15 15 15 14 14 13 13 12 11 10 10 8 7 6 6 5 6 11 7 7 6 13 3 4 5 7 3 6
10 11 11 11 15 16 16 15 17 18 18 18 18 17 16 15 16 15 14 13 14 13 12 11 10 10 9 8 7 7 6 8 11 9 7 5 8 1 5 5 5 4 3
9 10 10 12 13 14 15 15 15 17 18 17 17 17 15 13 16 17 16 15 15 14 14 13 12 11 10 10 9 9 7 7 6 6 5 11 5 6 7 5 5 4 4
13 10 9 10 12 13 11 13 14 15 15 16 17 18 15 16 14 15 16 14 17 15 14 13 13 12 11 9 9 10 8 3 5 5 5 9 5 9 9 8 7 6 6
7 7 10 11 12 14 12 10 8 9 10 12 18 15 15 13 12 12 10 11 11 15 11 13 12 10 12 7 5 4 3 5 4 4 3 7 7 10 11 10 9 9 9
9 4 8 12 12 14 10 10 11 10 11 11 14 16 12 10 11 11 10 12 11 10 11 9 8 9 9 8 8 6 6 6 4 4 5 9 8 10 11 10 11 11 10
11 9 7 8 12 11 13 10 11 11 11 12 12 15 14 14 11 12 11 11 11 11 10 10 9 8 9 9 9 8 8 8 7 5 5 12 8 9 11 11 11 13 10
13 13 10 9 10 11 12 12 11 11 12 12 12 13 17 14 11 13 12 12 11 10 10 10 9 9 9 9 9 9 9 8 8 8 7 7 12 10 10 11 11 12 11
14 13 13 10 9 11 12 13 11 11 11 12 12 14 16 16 13 13 12 12 12 10 11 9 8 9 8 8 9 7 8 11 9 9 8 8 8 14 12 11 12 12 10
15 12 12 11 11 11 11 11 10 10 10 10 11 11 16 16 16 14 11 12 11 9 10 9 9 8 8 9 5 6 8 10 10 9 8 8 6 6 12 13 12 11 12
13 12 14 13 14 13 11 11 11 11 10 10 10 10 14 15 16 13 12 11 10 10 10 8 7 9 9 4 8 7 8 10 7 8 10 10 9 8 6 14 9 10 11
13 12 14 13 12 10 9 9 9 9 10 9 10 10 12 12 15 14 11 11 10 10 9 9 11 8 6 7 7 7 6 7 8 9 10 8 10 10 9 6 6 9 10
15 15 15 14 11 9 9 9 9 10 9 9 8 10 12 12 15 14 10 10 11 10 10 11 10 9 6 6 6 8 9 9 11 9 7 8 10 9 9 6 7 2 8
16 15 15 14 11 10 9 8 7 7 8 7 6 9 12 13 13 12 10 11 12 10 12 11 11 6 6 4 5 4 9 4 6 6 7 8 9 6 10 8 7 8 5
18 15 14 12 12 12 12 8 7 6 5 6 10 9 9 9 10 12 13 10 12 10 10 11 10 10 6 6 7 6 4 3 3 5 7 5 5 5 6 5 7 8 7
19 17 15 13 12 11 13 11 12 10 8 7 9 9 8 11 13 14 13 11 11 10 10 9 8 7 7 5 3 7 10 6 2 3 4 7 4 4 6 5 7 8 8
16 17 15 12 13 12 12 12 11 10 7 9 9 14 11 10 12 13 12 12 11 9 9 10 8 9 5 7 7 3 7 7 6 5 4 5 4 3 5 5 5 7 8
13 12 11 13 12 11 12 13 13 11 9 10 13 12 11 10 10 12 13 11 10 8 8 7 8 7 8 5 6 5 7 7 6 4 2 5 5 4 3 4 5 6 8
Wind_Direction
181 153 166 172 174 175 168 165 160 162 161 158 156 156 155 155 153 156 153 152 148 150 148 143 138 133 130 122 116 109 103 93 76 52 50 48 42 44 49 185 208 173 139
160 156 168 171 176 178 175 169 168 167 164 163 164 162 162 160 160 162 163 162 159 155 150 147 144 140 137 132 129 126 122 111 99 75 4 193 108 40 43 347 254 128 148
158 161 170 173 177 177 180 174 175 174 170 170 170 169 167 166 168 166 164 168 165 161 158 155 151 146 142 139 139 133 131 126 121 121 243 244 221 67 21 23 315 152 172
155 165 175 177 178 177 179 179 176 179 179 178 176 173 173 172 174 173 167 169 169 168 168 162 157 153 149 148 154 155 153 150 148 230 229 214 232 106 30 358 1 237 194
163 170 179 179 178 177 177 181 180 182 185 184 181 181 181 178 179 177 175 174 173 171 172 169 166 164 163 167 172 187 204 211 234 246 206 238 269 113 29 327 238 210 206
169 178 171 180 178 176 178 180 183 186 190 190 186 188 184 184 186 184 182 179 177 176 177 177 174 179 186 186 196 215 221 239 258 227 223 134 255 74 339 308 293 274 245
171 183 171 173 181 180 179 184 185 187 190 193 195 192 187 189 188 189 188 188 187 185 183 180 184 188 201 208 224 236 232 238 268 266 209 238 155 82 291 299 310 266 237
170 181 170 175 185 184 179 185 189 192 191 195 197 195 190 192 191 191 191 192 195 196 194 192 192 196 205 221 239 242 238 250 256 253 260 232 102 150 283 304 321 277 201
174 183 182 181 187 187 184 185 189 194 200 193 198 200 194 193 195 194 193 196 199 201 206 205 202 203 205 214 220 226 240 251 272 273 254 233 127 188 274 299 326 253 199
180 184 189 197 191 199 194 194 194 194 200 198 198 200 197 196 200 200 199 201 203 207 210 213 212 213 215 216 219 222 232 249 252 259 240 255 110 229 264 277 305 317 245
191 188 197 194 204 205 207 196 199 203 204 202 200 200 193 206 201 203 205 195 206 207 210 214 216 218 218 222 216 218 224 239 250 236 256 105 118 242 254 256 272 287 272
201 201 208 211 208 211 216 215 208 212 212 212 209 205 206 209 209 209 202 207 198 207 212 215 216 218 220 228 184 199 232 263 244 248 249 120 189 240 245 244 248 260 255
217 222 206 206 213 212 211 214 217 214 215 216 217 209 204 207 209 203 206 197 206 205 209 204 205 220 221 242 226 240 256 238 241 229 145 145 219 239 241 238 239 247 246
242 252 243 207 208 214 221 213 223 224 220 217 211 206 210 207 206 210 211 200 204 200 217 215 218 223 226 228 255 249 238 269 246 237 160 166 223 242 243 240 237 239 237
272 283 238 232 206 213 217 230 227 229 224 226 217 205 211 209 208 204 210 213 203 207 198 211 220 217 219 231 236 236 247 247 265 263 271 156 204 238 243 240 241 233 234
266 268 263 243 211 209 224 226 235 230 236 225 226 218 207 214 207 206 209 210 214 210 207 212 211 218 220 232 227 235 240 250 244 256 252 182 182 218 245 240 237 229 232
262 257 262 248 236 226 232 236 234 243 227 235 221 217 210 211 215 211 211 214 217 210 216 212 214 218 229 230 240 240 244 248 248 242 244 246 190 194 213 232 234 233 232
240 252 248 261 256 241 247 244 241 237 232 227 226 213 211 208 218 201 214 216 216 208 203 207 213 217 229 236 234 243 241 262 247 243 247 254 259 240 192 205 220 236 231
248 242 248 250 262 267 248 247 237 236 227 222 216 208 200 206 205 213 213 215 201 212 206 203 209 227 229 258 247 242 239 243 256 250 235 235 249 259 254 168 196 225 224
260 250 250 259 261 240 249 237 238 227 221 218 210 206 194 199 198 202 213 210 191 206 197 200 218 214 241 239 248 250 253 258 250 241 248 242 245 237 222 238 208 195 185
259 252 251 251 244 226 220 225 220 218 209 207 203 193 190 195 194 199 204 185 196 200 197 202 204 210 222 229 258 248 236 247 247 249 251 236 231 226 226 185 232 302 166
260 254 250 245 239 223 220 228 241 220 204 195 186 175 195 193 188 189 188 184 190 186 196 198 198 200 218 188 260 301 271 194 225 230 233 220 213 236 239 214 194 194 215
258 250 246 240 226 221 230 210 201 174 141 161 187 181 184 171 168 180 187 184 177 196 182 192 197 204 216 213 245 257 284 300 158 187 226 210 221 218 261 274 175 185 202
261 256 252 239 235 221 208 205 199 189 174 182 172 163 155 164 172 181 176 176 178 194 169 189 198 212 227 222 214 234 262 293 282 201 197 202 222 228 209 234 205 175 180
260 255 245 241 236 225 200 209 188 207 170 162 162 135 155 165 169 167 167 169 177 197 176 195 186 210 200 243 219 180 228 243 238 248 196 173 171 199 228 203 211 178 165
247 240 235 226 218 197 187 191 191 183 161 150 135 151 153 160 161 166 170 172 175 189 179 189 207 206 226 234 254 223 209 209 219 210 192 156 160 197 224 192 187 191 162